Location: Unspecified
(42.7170°S, 0.0000°E)
Time: 05:44:33
(UTC+00:00)

N. Korean satellite - Pass Details

Date: 26 May 2019
Orbit: 455 x 510 km, 97.2° (Epoch: 19 June)

Event Time Altitude Azimuth Distance (km) Brightness Sun altitude
Exits shadow 19:04:43 - 199° (SSW) 1,790 9.6 -26.4°
Reaches altitude 10° 19:04:54 10° 201° (SSW) 1,736 9.5 -26.4°
Maximum altitude 19:07:39 20° 248° (WSW) 1,235 9.2 -26.9°
Drops below altitude 10° 19:10:25 10° 296° (WNW) 1,735 10.2 -27.4°
Sets 19:12:54 0° 313° (NW) 2,617 11.0 -27.9°
